Solomon, AZ

4:10 PM MST on August 30, 2016 (GMT -0700)
Safford Regional

Weather History for KSAD - February, 2012

Change the Weather History Date:

Sunday, February 26, 2012

  Actual Average Record
Temperature  
Mean Temperature 54 °F -  
Max Temperature 72 °F 67 °F 82 °F (1986)
Min Temperature 36 °F 33 °F 20 °F (1960)
Degree Days  
Heating Degree Days 11    
Growing Degree Days 4 (Base 50)    
Moisture  
Dew Point 24 °F    
Average Humidity 34    
Maximum Humidity 64    
Minimum Humidity 14    
Precipitation  
Precipitation 0.00 in - - ()
Sea Level Pressure  
Sea Level Pressure 29.86 in    
Wind  
Wind Speed 3 mph (NE)    
Max Wind Speed 8 mph    
Max Gust Speed -    
Visibility 10 miles    
Events      
Averages and records for this station are not official NWS values.
T = Trace of Precipitation, MM = Missing Value Source: NWS Daily Summary

Daily Weather History Graph

Daily Weather History Graph

Search for Another Location

Airport or City:

Trip Planner

Search our weather history database for the weather conditions in past years. The results will help you decide how hot, cold, wet, or windy it might be!

Date:

Astronomy

Feb. 26, 2012 Rise Set
Actual Time 6:50 AM MST 6:12 PM MST
Civil Twilight 6:25 AM MST 6:37 PM MST
Nautical Twilight 5:56 AM MST 7:06 PM MST
Astronomical Twilight 5:28 AM MST 7:35 PM MST
Moon 9:05 AM MST (2/26) 10:53 PM MST (2/26)
Length of Visible Light 12h 12m
Length of Day
11h 22m
Waxing Crescent, 21% of the Moon is Illuminated
Feb 26
Waxing Crescent
Feb 29
First Quarter
Mar 8
Full
Mar 14
Last Quarter
Mar 22
New

Hourly Weather History & Observations

Time (MST) Temp. Windchill Dew Point Humidity Pressure Visibility Wind Dir Wind Speed Gust Speed Precip Events Conditions
12:51 AM 46.9 °F - 25.0 °F 42% 29.88 in 10.0 mi East 8.1 mph - N/A   Clear
1:51 AM 43.0 °F 41.3 °F 26.1 °F 51% 29.88 in 10.0 mi SE 3.5 mph - N/A   Clear
2:51 AM 43.0 °F 41.3 °F 25.0 °F 49% 29.87 in 10.0 mi ESE 3.5 mph - N/A   Clear
3:51 AM 39.9 °F - 25.0 °F 55% 29.86 in 10.0 mi Calm Calm - N/A   Clear
4:51 AM 39.0 °F - 24.1 °F 55% 29.86 in 10.0 mi Calm Calm - N/A   Clear
5:51 AM 37.9 °F - 24.1 °F 57% 29.87 in 10.0 mi Calm Calm - N/A   Clear
6:51 AM 36.0 °F 33.3 °F 25.0 °F 64% 29.90 in 10.0 mi WNW 3.5 mph - N/A   Clear
7:51 AM 43.0 °F - 25.0 °F 49% 29.92 in 10.0 mi Calm Calm - N/A   Clear
8:51 AM 48.0 °F - 25.0 °F 41% 29.93 in 10.0 mi Calm Calm - N/A   Clear
9:51 AM 54.0 °F - 25.0 °F 33% 29.91 in 10.0 mi Calm Calm - N/A   Clear
10:51 AM 62.1 °F - 23.0 °F 22% 29.89 in 10.0 mi Calm Calm - N/A   Clear
11:51 AM 64.9 °F - 21.0 °F 19% 29.88 in 10.0 mi Calm Calm - N/A   Clear
12:51 PM 69.1 °F - 18.0 °F 14% 29.84 in 10.0 mi NW 3.5 mph - N/A   Clear
1:51 PM 69.1 °F - 18.0 °F 14% 29.82 in 10.0 mi Calm Calm - N/A   Clear
2:51 PM 72.0 °F - 19.9 °F 14% 29.80 in 10.0 mi WNW 6.9 mph - N/A   Clear
3:51 PM 72.0 °F - 19.9 °F 14% 29.80 in 10.0 mi WNW 6.9 mph - N/A   Clear
4:51 PM 72.0 °F - 21.0 °F 15% 29.79 in 10.0 mi NNW 8.1 mph - N/A   Clear
5:51 PM 69.1 °F - 21.0 °F 16% 29.80 in 10.0 mi NNW 5.8 mph - N/A   Clear
6:51 PM 64.0 °F - 24.1 °F 22% 29.83 in 10.0 mi Calm Calm - N/A   Clear
7:51 PM 55.9 °F - 28.0 °F 34% 29.84 in 10.0 mi Calm Calm - N/A   Clear
8:51 PM 55.9 °F - 26.1 °F 32% 29.85 in 10.0 mi East 5.8 mph - N/A   Clear
9:51 PM 52.0 °F - 27.0 °F 38% 29.87 in 10.0 mi SE 3.5 mph - N/A   Mostly Cloudy
10:51 PM 54.0 °F - 27.0 °F 35% 29.87 in 10.0 mi East 4.6 mph - N/A   Overcast
11:51 PM 53.1 °F - 26.1 °F 35% 29.87 in 10.0 mi ESE 5.8 mph - N/A   Partly Cloudy